Wetterdaten: Montag, 27.08.2012
Datum Zeit Temperatur Luftfeuchte Regen Wind Richtung Richtung Taupunkt Windchill Windben
27.08.2012 00:00 11,2 C 85 % 0,0 l/m 3,7 km/h (1 Bft) O-NO 67 8,8 C 11,3 C 5,0 km/h (1 Bft)
27.08.2012 00:05 11,4 C 86 % 0,0 l/m 3,7 km/h (1 Bft) N 360 9,1 C 11,4 C 1,8 km/h (1 Bft)
27.08.2012 00:10 11,3 C 85 % 0,0 l/m 3,5 km/h (1 Bft) O-SO 112 8,9 C 11,5 C 0,0 km/h (0 Bft)
27.08.2012 00:15 11,3 C 86 % 0,0 l/m 2,7 km/h (1 Bft) O-SO 112 9,0 C 11,6 C 4,8 km/h (1 Bft)
27.08.2012 00:20 11,2 C 87 % 0,0 l/m 2,6 km/h (1 Bft) O-SO 112 9,1 C 11,6 C 3,4 km/h (1 Bft)
27.08.2012 00:25 11,3 C 87 % 0,0 l/m 1,6 km/h (1 Bft) N 360 9,2 C 11,7 C 0,0 km/h (0 Bft)
27.08.2012 00:30 11,3 C 87 % 0,0 l/m 1,6 km/h (1 Bft) NO 45 9,2 C 11,6 C 3,7 km/h (1 Bft)
27.08.2012 00:35 11,4 C 88 % 0,0 l/m 1,9 km/h (1 Bft) N-NO 22 9,5 C 11,7 C 1,6 km/h (1 Bft)
27.08.2012 00:40 11,5 C 88 % 0,0 l/m 2,6 km/h (1 Bft) O-NO 67 9,6 C 11,8 C 6,1 km/h (2 Bft)
27.08.2012 00:45 11,6 C 88 % 0,0 l/m 1,9 km/h (1 Bft) SO 135 9,7 C 11,8 C 1,8 km/h (1 Bft)
27.08.2012 00:50 11,6 C 88 % 0,0 l/m 2,3 km/h (1 Bft) SO 135 9,7 C 11,8 C 4,2 km/h (1 Bft)
27.08.2012 00:55 11,5 C 87 % 0,0 l/m 2,7 km/h (1 Bft) SO 135 9,4 C 11,8 C 3,1 km/h (1 Bft)
27.08.2012 01:00 11,4 C 87 % 0,0 l/m 3,1 km/h (1 Bft) O 90 9,3 C 11,7 C 3,2 km/h (1 Bft)
27.08.2012 01:05 11,3 C 86 % 0,0 l/m 3,5 km/h (1 Bft) NO 45 9,0 C 11,7 C 8,2 km/h (2 Bft)
27.08.2012 01:10 11,4 C 86 % 0,0 l/m 4,3 km/h (1 Bft) O-SO 112 9,1 C 11,7 C 3,9 km/h (1 Bft)
27.08.2012 01:15 11,3 C 86 % 0,0 l/m 3,7 km/h (1 Bft) O-SO 112 9,0 C 11,7 C 8,4 km/h (2 Bft)
27.08.2012 01:20 11,3 C 86 % 0,0 l/m 2,7 km/h (1 Bft) O-SO 112 9,0 C 11,7 C 6,1 km/h (2 Bft)
27.08.2012 01:25 11,4 C 86 % 0,0 l/m 2,6 km/h (1 Bft) N-NO 22 9,1 C 11,6 C 2,1 km/h (1 Bft)
27.08.2012 01:30 11,5 C 86 % 0,0 l/m 3,1 km/h (1 Bft) O 90 9,2 C 11,7 C 7,2 km/h (2 Bft)
27.08.2012 01:35 11,4 C 86 % 0,0 l/m 3,2 km/h (1 Bft) N-NO 22 9,1 C 11,7 C 9,5 km/h (2 Bft)
27.08.2012 01:40 11,4 C 86 % 0,0 l/m 2,9 km/h (1 Bft) SO 135 9,1 C 11,5 C 3,4 km/h (1 Bft)
27.08.2012 01:45 11,2 C 86 % 0,0 l/m 2,9 km/h (1 Bft) SW 225 8,9 C 11,4 C 2,6 km/h (1 Bft)
27.08.2012 01:50 11,1 C 85 % 0,0 l/m 2,7 km/h (1 Bft) O-SO 112 8,7 C 11,2 C 2,7 km/h (1 Bft)
27.08.2012 01:55 11,0 C 86 % 0,0 l/m 3,7 km/h (1 Bft) O-SO 112 8,7 C 11,1 C 5,8 km/h (2 Bft)
27.08.2012 02:00 10,9 C 86 % 0,0 l/m 3,5 km/h (1 Bft) NO 45 8,7 C 11,1 C 4,5 km/h (1 Bft)
27.08.2012 02:05 10,7 C 86 % 0,0 l/m 2,6 km/h (1 Bft) N-NO 22 8,5 C 10,9 C 3,7 km/h (1 Bft)
27.08.2012 02:10 10,8 C 86 % 0,0 l/m 2,1 km/h (1 Bft) O-SO 112 8,6 C 10,7 C 0,0 km/h (0 Bft)
27.08.2012 02:15 10,8 C 86 % 0,0 l/m 2,6 km/h (1 Bft) NO 45 8,6 C 10,7 C 6,8 km/h (2 Bft)
27.08.2012 02:20 10,9 C 86 % 0,0 l/m 2,1 km/h (1 Bft) O-SO 112 8,7 C 10,8 C 0,0 km/h (0 Bft)
27.08.2012 02:25 11,0 C 86 % 0,0 l/m 2,4 km/h (1 Bft) O-SO 112 8,7 C 10,9 C 4,3 km/h (1 Bft)
27.08.2012 02:30 11,2 C 86 % 0,0 l/m 2,7 km/h (1 Bft) O-SO 112 8,9 C 11,0 C 1,8 km/h (1 Bft)
27.08.2012 02:35 11,3 C 87 % 0,0 l/m 2,3 km/h (1 Bft) SO 135 9,2 C 11,1 C 0,0 km/h (0 Bft)
27.08.2012 02:40 11,1 C 86 % 0,0 l/m 1,4 km/h (1 Bft) O-SO 112 8,8 C 11,1 C 4,2 km/h (1 Bft)
27.08.2012 02:45 10,9 C 86 % 0,0 l/m 1,8 km/h (1 Bft) O-SO 112 8,7 C 11,0 C 4,3 km/h (1 Bft)
27.08.2012 02:50 10,6 C 86 % 0,0 l/m 2,4 km/h (1 Bft) SO 135 8,4 C 10,8 C 2,7 km/h (1 Bft)
27.08.2012 02:55 10,3 C 87 % 0,0 l/m 1,8 km/h (1 Bft) O 90 8,2 C 10,6 C 2,3 km/h (1 Bft)
27.08.2012 03:00 10,2 C 87 % 0,0 l/m 1,3 km/h (1 Bft) O-SO 112 8,1 C 10,4 C 5,3 km/h (1 Bft)
27.08.2012 03:05 10,0 C 87 % 0,0 l/m 1,0 km/h (0 Bft) O-SO 112 7,9 C 10,1 C 0,0 km/h (0 Bft)
27.08.2012 03:10 10,0 C 87 % 0,0 l/m 1,1 km/h (1 Bft) SO 135 7,9 C 10,0 C 2,9 km/h (1 Bft)
27.08.2012 03:15 10,0 C 88 % 0,0 l/m 1,3 km/h (1 Bft) O-SO 112 8,1 C 9,9 C 2,9 km/h (1 Bft)
27.08.2012 03:20 9,8 C 88 % 0,0 l/m 1,0 km/h (0 Bft) NO 45 7,9 C 9,8 C 0,0 km/h (0 Bft)
27.08.2012 03:25 9,6 C 88 % 0,0 l/m 0,5 km/h (0 Bft) SO 135 7,7 C 9,4 C 2,1 km/h (1 Bft)
27.08.2012 03:30 9,4 C 89 % 0,0 l/m 0,5 km/h (0 Bft) N-NO 22 7,7 C 9,3 C 1,9 km/h (1 Bft)
27.08.2012 03:35 9,4 C 89 % 0,0 l/m 0,5 km/h (0 Bft) O-SO 112 7,7 C 9,1 C 4,0 km/h (1 Bft)
27.08.2012 03:40 9,4 C 89 % 0,0 l/m 0,8 km/h (0 Bft) N-NO 22 7,7 C 9,1 C 0,0 km/h (0 Bft)
27.08.2012 03:45 9,1 C 89 % 0,0 l/m 1,0 km/h (0 Bft) N-NO 22 7,4 C 9,0 C 1,8 km/h (1 Bft)
27.08.2012 03:50 9,1 C 89 % 0,0 l/m 0,8 km/h (0 Bft) N 360 7,4 C 8,8 C 2,6 km/h (1 Bft)
27.08.2012 03:55 9,3 C 89 % 0,0 l/m 1,0 km/h (0 Bft) N 360 7,6 C 8,7 C 2,7 km/h (1 Bft)
27.08.2012 04:00 9,3 C 89 % 0,0 l/m 1,1 km/h (1 Bft) N 360 7,6 C 8,6 C 0,0 km/h (0 Bft)
27.08.2012 04:05 9,3 C 89 % 0,0 l/m 1,3 km/h (1 Bft) NO 45 7,6 C 8,5 C 1,6 km/h (1 Bft)
27.08.2012 04:10 9,1 C 89 % 0,0 l/m 0,8 km/h (0 Bft) W-SW 247 7,4 C 8,3 C 2,1 km/h (1 Bft)
27.08.2012 04:15 8,7 C 89 % 0,0 l/m 0,3 km/h (0 Bft) N-NW 337 7,0 C 8,0 C 0,0 km/h (0 Bft)
27.08.2012 04:20 8,4 C 90 % 0,0 l/m 0,2 km/h (0 Bft) NO 45 6,9 C 7,8 C 0,0 km/h (0 Bft)
27.08.2012 04:25 8,4 C 90 % 0,0 l/m 0,2 km/h (0 Bft) N-NO 22 6,9 C 7,6 C 0,0 km/h (0 Bft)
27.08.2012 04:30 8,3 C 90 % 0,0 l/m 0,2 km/h (0 Bft) S 180 6,8 C 7,5 C 0,0 km/h (0 Bft)
27.08.2012 04:35 7,7 C 90 % 0,0 l/m 0,0 km/h (0 Bft) W-NW 292 6,2 C 7,1 C 0,0 km/h (0 Bft)
27.08.2012 04:40 7,6 C 90 % 0,0 l/m 0,0 km/h (0 Bft) W-NW 292 6,1 C 7,0 C 0,0 km/h (0 Bft)
27.08.2012 04:45 7,7 C 91 % 0,0 l/m 0,0 km/h (0 Bft) N-NO 22 6,3 C 6,9 C 0,0 km/h (0 Bft)
27.08.2012 04:50 8,0 C 91 % 0,0 l/m 0,2 km/h (0 Bft) N-NO 22 6,6 C 7,0 C 0,0 km/h (0 Bft)
27.08.2012 04:55 8,2 C 91 % 0,0 l/m 0,0 km/h (0 Bft) N 360 6,8 C 7,2 C 0,0 km/h (0 Bft)
27.08.2012 05:00 8,0 C 91 % 0,0 l/m 0,2 km/h (0 Bft) N 360 6,6 C 7,2 C 1,6 km/h (1 Bft)
27.08.2012 05:05 8,3 C 91 % 0,0 l/m 0,3 km/h (0 Bft) N 360 6,9 C 7,3 C 0,0 km/h (0 Bft)
27.08.2012 05:10 8,3 C 91 % 0,0 l/m 0,3 km/h (0 Bft) N-NO 22 6,9 C 7,3 C 0,0 km/h (0 Bft)
27.08.2012 05:15 8,2 C 91 % 0,0 l/m 0,8 km/h (0 Bft) S-SW 202 6,8 C 7,3 C 0,0 km/h (0 Bft)
27.08.2012 05:20 7,7 C 92 % 0,0 l/m 0,8 km/h (0 Bft) N-NO 22 6,5 C 7,2 C 0,0 km/h (0 Bft)
27.08.2012 05:25 7,4 C 92 % 0,0 l/m 0,5 km/h (0 Bft) N-NO 22 6,2 C 6,9 C 0,0 km/h (0 Bft)
27.08.2012 05:30 7,2 C 92 % 0,0 l/m 0,5 km/h (0 Bft) N-NO 22 6,0 C 6,8 C 0,0 km/h (0 Bft)
27.08.2012 05:35 7,2 C 92 % 0,0 l/m 0,0 km/h (0 Bft) SO 135 6,0 C 6,7 C 0,0 km/h (0 Bft)
27.08.2012 05:40 7,2 C 92 % 0,0 l/m 0,2 km/h (0 Bft) S-SO 157 6,0 C 6,6 C 1,6 km/h (1 Bft)
27.08.2012 05:45 7,2 C 92 % 0,0 l/m 0,5 km/h (0 Bft) N 360 6,0 C 6,5 C 3,7 km/h (1 Bft)
27.08.2012 05:50 7,4 C 92 % 0,0 l/m 0,6 km/h (0 Bft) N-NW 337 6,2 C 6,7 C 1,9 km/h (1 Bft)
27.08.2012 05:55 7,0 C 92 % 0,0 l/m 1,0 km/h (0 Bft) NW 315 5,8 C 6,7 C 2,1 km/h (1 Bft)
27.08.2012 06:00 7,0 C 92 % 0,0 l/m 0,8 km/h (0 Bft) NW 315 5,8 C 6,7 C 0,0 km/h (0 Bft)
27.08.2012 06:05 7,1 C 93 % 0,0 l/m 0,3 km/h (0 Bft) O 90 6,0 C 6,7 C 0,0 km/h (0 Bft)
27.08.2012 06:10 7,0 C 93 % 0,0 l/m 0,0 km/h (0 Bft) NO 45 5,9 C 6,6 C 0,0 km/h (0 Bft)
27.08.2012 06:15 7,1 C 93 % 0,0 l/m 0,3 km/h (0 Bft) O-SO 112 6,0 C 6,6 C 0,0 km/h (0 Bft)
27.08.2012 06:20 7,1 C 93 % 0,0 l/m 0,3 km/h (0 Bft) S 180 6,0 C 6,6 C 0,0 km/h (0 Bft)
27.08.2012 06:25 7,0 C 93 % 0,0 l/m 0,2 km/h (0 Bft) N-NO 22 5,9 C 6,5 C 0,0 km/h (0 Bft)
27.08.2012 06:30 6,9 C 93 % 0,0 l/m 0,2 km/h (0 Bft) N 360 5,8 C 6,4 C 0,0 km/h (0 Bft)
27.08.2012 06:35 7,1 C 93 % 0,0 l/m 0,5 km/h (0 Bft) N-NW 337 6,0 C 6,4 C 0,0 km/h (0 Bft)
27.08.2012 06:40 7,0 C 93 % 0,0 l/m 0,5 km/h (0 Bft) SO 135 5,9 C 6,5 C 1,6 km/h (1 Bft)
27.08.2012 06:45 7,0 C 93 % 0,0 l/m 0,2 km/h (0 Bft) S-SO 157 5,9 C 6,7 C 0,0 km/h (0 Bft)
27.08.2012 06:50 7,1 C 93 % 0,0 l/m 0,2 km/h (0 Bft) SO 135 6,0 C 6,7 C 0,0 km/h (0 Bft)
27.08.2012 06:55 7,1 C 93 % 0,0 l/m 0,2 km/h (0 Bft) NO 45 6,0 C 6,7 C 0,0 km/h (0 Bft)
27.08.2012 07:00 7,0 C 93 % 0,0 l/m 0,2 km/h (0 Bft) S 180 5,9 C 6,7 C 0,0 km/h (0 Bft)
27.08.2012 07:05 7,1 C 93 % 0,0 l/m 0,0 km/h (0 Bft) N 360 6,0 C 6,8 C 0,0 km/h (0 Bft)
27.08.2012 07:10 7,0 C 93 % 0,0 l/m 0,0 km/h (0 Bft) SO 135 5,9 C 8,0 C 0,0 km/h (0 Bft)
27.08.2012 07:15 7,3 C 94 % 0,0 l/m 0,0 km/h (0 Bft) NO 45 6,4 C 9,7 C 0,0 km/h (0 Bft)
27.08.2012 07:20 7,5 C 94 % 0,0 l/m 0,0 km/h (0 Bft) NO 45 6,6 C 10,4 C 0,0 km/h (0 Bft)
27.08.2012 07:25 7,5 C 94 % 0,0 l/m 0,0 km/h (0 Bft) N-NO 22 6,6 C 11,2 C 0,0 km/h (0 Bft)
27.08.2012 07:30 7,4 C 94 % 0,0 l/m 0,0 km/h (0 Bft) SO 135 6,5 C 12,0 C 0,0 km/h (0 Bft)
27.08.2012 07:35 7,7 C 94 % 0,0 l/m 0,0 km/h (0 Bft) N-NO 22 6,8 C 13,0 C 0,0 km/h (0 Bft)
27.08.2012 07:40 7,7 C 94 % 0,0 l/m 0,0 km/h (0 Bft) N 360 6,8 C 13,7 C 1,9 km/h (1 Bft)
27.08.2012 07:45 8,2 C 94 % 0,0 l/m 0,0 km/h (0 Bft) N 360 7,3 C 14,7 C 0,0 km/h (0 Bft)
27.08.2012 07:50 9,6 C 93 % 0,0 l/m 0,0 km/h (0 Bft) N 360 10,5 C 15,3 C 0,0 km/h (0 Bft)
27.08.2012 07:55 9,7 C 87 % 0,0 l/m 0,0 km/h (0 Bft) S-SW 202 12,1 C 15,8 C 0,0 km/h (0 Bft)
27.08.2012 08:00 9,9 C 83 % 0,0 l/m 0,0 km/h (0 Bft) O-SO 112 11,8 C 16,3 C 0,0 km/h (0 Bft)
27.08.2012 08:05 10,3 C 81 % 0,0 l/m 0,0 km/h (0 Bft) N 360 12,3 C 17,1 C 0,0 km/h (0 Bft)
27.08.2012 08:10 12,8 C 79 % 0,0 l/m 0,2 km/h (0 Bft) N-NW 337 12,3 C 17,5 C 0,0 km/h (0 Bft)
27.08.2012 08:15 15,1 C 78 % 0,0 l/m 0,2 km/h (0 Bft) W 270 12,9 C 18,1 C 0,0 km/h (0 Bft)
27.08.2012 08:20 16,3 C 78 % 0,0 l/m 0,2 km/h (0 Bft) S-SW 202 14,0 C 18,8 C 0,0 km/h (0 Bft)
27.08.2012 08:25 17,1 C 71 % 0,0 l/m 0,2 km/h (0 Bft) NO 45 12,4 C 19,5 C 0,0 km/h (0 Bft)
27.08.2012 08:30 17,0 C 70 % 0,0 l/m 0,2 km/h (0 Bft) N-NO 22 12,1 C 19,9 C 0,0 km/h (0 Bft)
27.08.2012 08:35 16,2 C 70 % 0,0 l/m 0,0 km/h (0 Bft) N-NO 22 12,7 C 20,4 C 0,0 km/h (0 Bft)
27.08.2012 08:40 15,8 C 69 % 0,0 l/m 0,0 km/h (0 Bft) N-NO 22 12,9 C 20,8 C 0,0 km/h (0 Bft)
27.08.2012 08:45 15,4 C 67 % 0,0 l/m 0,2 km/h (0 Bft) N 360 12,8 C 21,4 C 0,0 km/h (0 Bft)
27.08.2012 08:50 15,4 C 66 % 0,0 l/m 0,2 km/h (0 Bft) N-NO 22 12,9 C 21,7 C 0,0 km/h (0 Bft)
27.08.2012 08:55 15,6 C 65 % 0,0 l/m 0,0 km/h (0 Bft) N 360 13,1 C 22,4 C 0,0 km/h (0 Bft)
27.08.2012 09:00 15,9 C 64 % 0,0 l/m 0,0 km/h (0 Bft) N 360 13,7 C 23,1 C 0,0 km/h (0 Bft)
27.08.2012 09:05 16,0 C 58 % 0,0 l/m 0,0 km/h (0 Bft) NO 45 11,6 C 23,5 C 0,0 km/h (0 Bft)
27.08.2012 09:10 16,1 C 59 % 0,0 l/m 0,0 km/h (0 Bft) N-NO 22 11,8 C 23,5 C 0,0 km/h (0 Bft)
27.08.2012 09:15 16,2 C 55 % 0,0 l/m 0,0 km/h (0 Bft) N-NO 22 11,1 C 23,8 C 0,0 km/h (0 Bft)
27.08.2012 09:20 16,3 C 56 % 0,0 l/m 0,6 km/h (0 Bft) S-SO 157 12,2 C 23,7 C 3,4 km/h (1 Bft)
27.08.2012 09:25 16,9 C 53 % 0,0 l/m 1,1 km/h (1 Bft) S 180 12,4 C 23,4 C 2,3 km/h (1 Bft)
27.08.2012 09:30 17,1 C 48 % 0,0 l/m 1,1 km/h (1 Bft) S-SW 202 11,1 C 23,4 C 0,0 km/h (0 Bft)
27.08.2012 09:35 17,2 C 46 % 0,0 l/m 1,1 km/h (1 Bft) NW 315 9,9 C 23,2 C 1,6 km/h (1 Bft)
27.08.2012 09:40 17,3 C 47 % 0,0 l/m 1,3 km/h (1 Bft) W-NW 292 9,2 C 23,0 C 0,0 km/h (0 Bft)
27.08.2012 09:45 17,7 C 49 % 0,0 l/m 1,4 km/h (1 Bft) SW 225 10,5 C 23,0 C 4,3 km/h (1 Bft)
27.08.2012 09:50 17,8 C 48 % 0,0 l/m 1,4 km/h (1 Bft) S 180 10,6 C 22,9 C 2,7 km/h (1 Bft)
27.08.2012 09:55 18,1 C 47 % 0,0 l/m 2,4 km/h (1 Bft) W-SW 247 10,1 C 22,7 C 3,2 km/h (1 Bft)
27.08.2012 10:00 17,9 C 47 % 0,0 l/m 2,9 km/h (1 Bft) S 180 9,5 C 22,2 C 2,9 km/h (1 Bft)
27.08.2012 10:05 18,2 C 46 % 0,0 l/m 3,1 km/h (1 Bft) S-SO 157 10,1 C 22,2 C 3,1 km/h (1 Bft)
27.08.2012 10:10 18,5 C 47 % 0,0 l/m 2,6 km/h (1 Bft) SO 135 10,8 C 22,3 C 2,9 km/h (1 Bft)
27.08.2012 10:15 18,5 C 45 % 0,0 l/m 3,4 km/h (1 Bft) S-SW 202 9,3 C 22,0 C 4,5 km/h (1 Bft)
27.08.2012 10:20 18,8 C 48 % 0,0 l/m 3,4 km/h (1 Bft) SO 135 10,1 C 22,2 C 0,0 km/h (0 Bft)
27.08.2012 10:25 18,8 C 44 % 0,0 l/m 2,1 km/h (1 Bft) S 180 8,9 C 22,8 C 5,3 km/h (1 Bft)
27.08.2012 10:30 19,0 C 47 % 0,0 l/m 1,9 km/h (1 Bft) S-SW 202 10,1 C 22,9 C 4,2 km/h (1 Bft)
27.08.2012 10:35 19,4 C 47 % 0,0 l/m 3,4 km/h (1 Bft) S-SW 202 9,8 C 22,7 C 4,0 km/h (1 Bft)
27.08.2012 10:40 19,9 C 45 % 0,0 l/m 3,2 km/h (1 Bft) S-SO 157 10,2 C 22,8 C 3,4 km/h (1 Bft)
27.08.2012 10:45 19,7 C 46 % 0,0 l/m 3,1 km/h (1 Bft) W-NW 292 8,8 C 22,8 C 3,7 km/h (1 Bft)
27.08.2012 10:50 19,3 C 49 % 0,0 l/m 3,2 km/h (1 Bft) N-NW 337 8,4 C 22,1 C 1,9 km/h (1 Bft)
27.08.2012 10:55 19,6 C 48 % 0,0 l/m 2,9 km/h (1 Bft) SW 225 9,1 C 22,1 C 5,3 km/h (1 Bft)
27.08.2012 11:00 19,8 C 47 % 0,0 l/m 2,9 km/h (1 Bft) W-SW 247 8,9 C 22,2 C 5,0 km/h (1 Bft)
27.08.2012 11:05 19,9 C 47 % 0,0 l/m 3,2 km/h (1 Bft) N-NW 337 9,0 C 22,4 C 5,8 km/h (2 Bft)
27.08.2012 11:10 19,4 C 49 % 0,0 l/m 3,5 km/h (1 Bft) W-SW 247 8,4 C 21,8 C 2,7 km/h (1 Bft)
27.08.2012 11:15 20,3 C 49 % 0,0 l/m 3,1 km/h (1 Bft) S-SO 157 9,6 C 22,5 C 3,2 km/h (1 Bft)
27.08.2012 11:20 20,8 C 47 % 0,0 l/m 1,9 km/h (1 Bft) SO 135 9,3 C 22,9 C 2,6 km/h (1 Bft)
27.08.2012 11:25 21,1 C 46 % 0,0 l/m 2,9 km/h (1 Bft) O-SO 112 9,0 C 23,3 C 3,2 km/h (1 Bft)
27.08.2012 11:30 21,4 C 47 % 0,0 l/m 2,6 km/h (1 Bft) W-SW 247 9,9 C 23,7 C 3,2 km/h (1 Bft)
27.08.2012 11:35 21,1 C 45 % 0,0 l/m 3,2 km/h (1 Bft) S 180 8,7 C 23,6 C 6,6 km/h (2 Bft)
27.08.2012 11:40 20,8 C 46 % 0,0 l/m 4,8 km/h (1 Bft) W-SW 247 8,8 C 23,1 C 4,2 km/h (1 Bft)
27.08.2012 11:45 20,8 C 46 % 0,0 l/m 5,0 km/h (1 Bft) W-SW 247 8,8 C 23,1 C 10,8 km/h (2 Bft)
27.08.2012 11:50 21,0 C 48 % 0,0 l/m 4,2 km/h (1 Bft) S 180 9,6 C 22,9 C 3,2 km/h (1 Bft)
27.08.2012 11:55 21,7 C 46 % 0,0 l/m 4,0 km/h (1 Bft) W 270 9,6 C 23,2 C 5,5 km/h (1 Bft)
27.08.2012 12:00 22,1 C 46 % 0,0 l/m 3,5 km/h (1 Bft) S-SW 202 10,0 C 23,6 C 7,1 km/h (2 Bft)
27.08.2012 12:05 22,3 C 46 % 0,0 l/m 4,0 km/h (1 Bft) S-SW 202 10,1 C 23,9 C 7,1 km/h (2 Bft)
27.08.2012 12:10 21,7 C 46 % 0,0 l/m 3,7 km/h (1 Bft) W-NW 292 9,6 C 24,1 C 8,5 km/h (2 Bft)
27.08.2012 12:15 21,5 C 46 % 0,0 l/m 3,9 km/h (1 Bft) W-SW 247 9,4 C 24,1 C 4,7 km/h (1 Bft)
27.08.2012 12:20 21,9 C 43 % 0,0 l/m 3,9 km/h (1 Bft) NW 315 8,7 C 24,1 C 6,1 km/h (2 Bft)
27.08.2012 12:25 22,6 C 45 % 0,0 l/m 2,4 km/h (1 Bft) S-SW 202 10,1 C 24,3 C 0,0 km/h (0 Bft)
27.08.2012 12:30 22,3 C 44 % 0,0 l/m 2,6 km/h (1 Bft) W 270 9,5 C 24,8 C 4,7 km/h (1 Bft)
27.08.2012 12:35 22,1 C 45 % 0,0 l/m 2,9 km/h (1 Bft) O-SO 112 9,6 C 24,6 C 4,7 km/h (1 Bft)
27.08.2012 12:40 20,7 C 43 % 0,0 l/m 4,2 km/h (1 Bft) S-SW 202 7,7 C 24,1 C 6,1 km/h (2 Bft)
27.08.2012 12:45 21,0 C 44 % 0,0 l/m 4,3 km/h (1 Bft) N-NO 22 8,3 C 23,7 C 3,2 km/h (1 Bft)
27.08.2012 12:50 20,8 C 43 % 0,0 l/m 3,5 km/h (1 Bft) N-NW 337 7,8 C 23,8 C 5,0 km/h (1 Bft)
27.08.2012 12:55 21,6 C 45 % 0,0 l/m 2,7 km/h (1 Bft) S-SW 202 9,2 C 24,1 C 5,3 km/h (1 Bft)
27.08.2012 13:00 21,1 C 44 % 0,0 l/m 4,0 km/h (1 Bft) W 270 8,4 C 23,8 C 5,6 km/h (1 Bft)
27.08.2012 13:05 21,5 C 48 % 0,0 l/m 4,7 km/h (1 Bft) SW 225 10,0 C 22,8 C 4,7 km/h (1 Bft)
27.08.2012 13:10 21,3 C 46 % 0,0 l/m 4,3 km/h (1 Bft) W-NW 292 9,2 C 22,5 C 2,6 km/h (1 Bft)
27.08.2012 13:15 21,2 C 47 % 0,0 l/m 4,2 km/h (1 Bft) S-SW 202 9,4 C 22,4 C 5,3 km/h (1 Bft)
27.08.2012 13:20 20,8 C 46 % 0,0 l/m 3,5 km/h (1 Bft) SW 225 8,8 C 22,5 C 2,1 km/h (1 Bft)
27.08.2012 13:25 21,0 C 47 % 0,0 l/m 4,7 km/h (1 Bft) S 180 9,3 C 22,0 C 6,6 km/h (2 Bft)
27.08.2012 13:30 20,5 C 47 % 0,0 l/m 5,0 km/h (1 Bft) NW 315 8,8 C 21,4 C 12,1 km/h (2 Bft)
27.08.2012 13:35 20,5 C 48 % 0,0 l/m 4,5 km/h (1 Bft) N-NO 22 9,1 C 20,4 C 0,0 km/h (0 Bft)
27.08.2012 13:40 20,5 C 46 % 0,0 l/m 4,7 km/h (1 Bft) N-NW 337 8,5 C 20,2 C 7,4 km/h (2 Bft)
27.08.2012 13:45 20,3 C 45 % 0,0 l/m 4,7 km/h (1 Bft) W 270 8,0 C 20,2 C 7,6 km/h (2 Bft)
27.08.2012 13:50 20,8 C 47 % 0,0 l/m 5,1 km/h (1 Bft) W 270 9,1 C 20,7 C 8,0 km/h (2 Bft)
27.08.2012 13:55 20,7 C 48 % 0,0 l/m 5,1 km/h (1 Bft) W-SW 247 9,3 C 21,5 C 7,7 km/h (2 Bft)
27.08.2012 14:00 20,6 C 46 % 0,0 l/m 5,5 km/h (1 Bft) NW 315 8,6 C 21,9 C 7,9 km/h (2 Bft)
27.08.2012 14:05 20,5 C 46 % 0,0 l/m 6,1 km/h (2 Bft) O-NO 67 8,5 C 22,0 C 16,1 km/h (3 Bft)
27.08.2012 14:10 21,0 C 46 % 0,0 l/m 6,3 km/h (2 Bft) W-SW 247 8,9 C 22,4 C 10,8 km/h (2 Bft)
27.08.2012 14:15 21,4 C 45 % 0,0 l/m 5,6 km/h (1 Bft) W-NW 292 9,0 C 22,5 C 7,6 km/h (2 Bft)
27.08.2012 14:20 21,1 C 46 % 0,0 l/m 5,8 km/h (2 Bft) S-SW 202 9,0 C 22,7 C 7,2 km/h (2 Bft)
27.08.2012 14:25 21,0 C 46 % 0,0 l/m 5,1 km/h (1 Bft) N-NW 337 8,9 C 22,7 C 2,7 km/h (1 Bft)
27.08.2012 14:30 20,6 C 43 % 0,0 l/m 4,7 km/h (1 Bft) W-SW 247 7,6 C 22,9 C 7,1 km/h (2 Bft)
27.08.2012 14:35 21,0 C 44 % 0,0 l/m 4,7 km/h (1 Bft) SW 225 8,3 C 23,1 C 12,4 km/h (3 Bft)
27.08.2012 14:40 21,0 C 45 % 0,0 l/m 5,0 km/h (1 Bft) W-SW 247 8,6 C 23,0 C 6,6 km/h (2 Bft)
27.08.2012 14:45 21,3 C 44 % 0,0 l/m 4,7 km/h (1 Bft) W-NW 292 8,5 C 23,2 C 11,9 km/h (2 Bft)
27.08.2012 14:50 20,8 C 45 % 0,0 l/m 4,3 km/h (1 Bft) W-NW 292 8,4 C 23,3 C 4,5 km/h (1 Bft)
27.08.2012 14:55 21,2 C 45 % 0,0 l/m 5,3 km/h (1 Bft) W-SW 247 8,8 C 23,3 C 10,9 km/h (2 Bft)
27.08.2012 15:00 21,2 C 46 % 0,0 l/m 5,3 km/h (1 Bft) W-SW 247 9,1 C 23,0 C 7,9 km/h (2 Bft)
27.08.2012 15:05 21,6 C 45 % 0,0 l/m 5,5 km/h (1 Bft) W 270 9,2 C 23,1 C 10,3 km/h (2 Bft)
27.08.2012 15:10 21,5 C 46 % 0,0 l/m 5,3 km/h (1 Bft) W-SW 247 9,4 C 23,1 C 4,8 km/h (1 Bft)
27.08.2012 15:15 21,3 C 44 % 0,0 l/m 5,8 km/h (2 Bft) W-NW 292 8,5 C 23,0 C 6,1 km/h (2 Bft)
27.08.2012 15:20 21,2 C 46 % 0,0 l/m 4,8 km/h (1 Bft) W 270 9,1 C 23,0 C 6,1 km/h (2 Bft)
27.08.2012 15:25 21,0 C 45 % 0,0 l/m 5,3 km/h (1 Bft) W-NW 292 8,6 C 22,9 C 8,2 km/h (2 Bft)
27.08.2012 15:30 21,1 C 44 % 0,0 l/m 5,6 km/h (1 Bft) W 270 8,4 C 23,0 C 11,4 km/h (2 Bft)
27.08.2012 15:35 21,0 C 43 % 0,0 l/m 6,0 km/h (2 Bft) W-NW 292 7,9 C 22,8 C 6,1 km/h (2 Bft)
27.08.2012 15:40 21,1 C 46 % 0,0 l/m 5,8 km/h (2 Bft) W 270 9,0 C 22,8 C 11,7 km/h (2 Bft)
27.08.2012 15:45 21,4 C 45 % 0,0 l/m 5,5 km/h (1 Bft) N-NO 22 9,0 C 22,7 C 5,8 km/h (2 Bft)
27.08.2012 15:50 21,1 C 45 % 0,0 l/m 6,1 km/h (2 Bft) W-NW 292 8,7 C 22,7 C 10,9 km/h (2 Bft)
27.08.2012 15:55 20,9 C 43 % 0,0 l/m 6,9 km/h (2 Bft) W 270 7,8 C 22,1 C 9,3 km/h (2 Bft)
27.08.2012 16:00 20,8 C 45 % 0,0 l/m 8,4 km/h (2 Bft) W-SW 247 8,4 C 21,3 C 8,5 km/h (2 Bft)
27.08.2012 16:05 20,7 C 44 % 0,0 l/m 7,4 km/h (2 Bft) W 270 8,0 C 21,9 C 13,4 km/h (3 Bft)
27.08.2012 16:10 20,7 C 44 % 0,0 l/m 6,4 km/h (2 Bft) SW 225 8,0 C 22,1 C 5,5 km/h (1 Bft)
27.08.2012 16:15 20,7 C 46 % 0,0 l/m 6,1 km/h (2 Bft) W-NW 292 8,7 C 22,4 C 7,4 km/h (2 Bft)
27.08.2012 16:20 20,5 C 47 % 0,0 l/m 5,5 km/h (1 Bft) N-NW 337 8,8 C 22,4 C 5,8 km/h (2 Bft)
27.08.2012 16:25 20,4 C 47 % 0,0 l/m 4,7 km/h (1 Bft) NW 315 8,7 C 22,9 C 7,9 km/h (2 Bft)
27.08.2012 16:30 20,3 C 45 % 0,0 l/m 4,3 km/h (1 Bft) W-SW 247 8,0 C 22,9 C 9,2 km/h (2 Bft)
27.08.2012 16:35 20,1 C 47 % 0,0 l/m 5,6 km/h (1 Bft) W-SW 247 8,4 C 22,6 C 9,7 km/h (2 Bft)
27.08.2012 16:40 19,8 C 47 % 0,0 l/m 6,6 km/h (2 Bft) W-SW 247 8,2 C 22,2 C 9,5 km/h (2 Bft)
27.08.2012 16:45 19,4 C 50 % 0,0 l/m 5,5 km/h (1 Bft) W-SW 247 8,7 C 22,4 C 7,1 km/h (2 Bft)
27.08.2012 16:50 19,2 C 52 % 0,0 l/m 4,2 km/h (1 Bft) N-NW 337 9,1 C 22,6 C 3,5 km/h (1 Bft)
27.08.2012 16:55 19,1 C 50 % 0,0 l/m 4,7 km/h (1 Bft) W-NW 292 8,4 C 22,8 C 8,5 km/h (2 Bft)
27.08.2012 17:00 19,0 C 53 % 0,0 l/m 4,3 km/h (1 Bft) NW 315 9,2 C 22,6 C 5,8 km/h (2 Bft)
27.08.2012 17:05 18,9 C 56 % 0,0 l/m 5,3 km/h (1 Bft) SW 225 9,9 C 22,5 C 5,8 km/h (2 Bft)
27.08.2012 17:10 18,9 C 51 % 0,0 l/m 5,8 km/h (2 Bft) S-SW 202 8,5 C 22,4 C 4,2 km/h (1 Bft)
27.08.2012 17:15 18,7 C 54 % 0,0 l/m 5,5 km/h (1 Bft) W 270 9,2 C 22,5 C 8,9 km/h (2 Bft)
27.08.2012 17:20 18,7 C 52 % 0,0 l/m 6,4 km/h (2 Bft) W-NW 292 8,6 C 22,2 C 10,5 km/h (2 Bft)
27.08.2012 17:25 18,5 C 52 % 0,0 l/m 6,0 km/h (2 Bft) SO 135 8,5 C 22,1 C 1,8 km/h (1 Bft)
27.08.2012 17:30 18,5 C 54 % 0,0 l/m 4,7 km/h (1 Bft) W 270 9,0 C 22,4 C 9,2 km/h (2 Bft)
27.08.2012 17:35 18,7 C 54 % 0,0 l/m 5,3 km/h (1 Bft) W-NW 292 9,2 C 22,2 C 8,0 km/h (2 Bft)
27.08.2012 17:40 18,4 C 55 % 0,0 l/m 6,0 km/h (2 Bft) W 270 9,2 C 22,2 C 6,3 km/h (2 Bft)
27.08.2012 17:45 18,4 C 55 % 0,0 l/m 4,8 km/h (1 Bft) NW 315 9,2 C 22,3 C 5,0 km/h (1 Bft)
27.08.2012 17:50 18,4 C 55 % 0,0 l/m 4,8 km/h (1 Bft) W-NW 292 9,2 C 22,2 C 3,7 km/h (1 Bft)
27.08.2012 17:55 18,4 C 54 % 0,0 l/m 6,3 km/h (2 Bft) W 270 8,9 C 22,1 C 8,7 km/h (2 Bft)
27.08.2012 18:00 18,3 C 57 % 0,0 l/m 6,6 km/h (2 Bft) W-NW 292 9,6 C 21,8 C 6,3 km/h (2 Bft)
27.08.2012 18:05 18,3 C 55 % 0,0 l/m 6,1 km/h (2 Bft) W-SW 247 9,1 C 21,9 C 6,6 km/h (2 Bft)
27.08.2012 18:10 18,3 C 56 % 0,0 l/m 5,1 km/h (1 Bft) W-SW 247 9,4 C 22,0 C 4,3 km/h (1 Bft)
27.08.2012 18:15 18,0 C 57 % 0,0 l/m 3,7 km/h (1 Bft) W 270 9,4 C 22,4 C 5,8 km/h (2 Bft)
27.08.2012 18:20 17,9 C 57 % 0,0 l/m 3,2 km/h (1 Bft) N-NW 337 9,3 C 22,4 C 1,6 km/h (1 Bft)
27.08.2012 18:25 17,7 C 58 % 0,0 l/m 2,7 km/h (1 Bft) W-NW 292 9,3 C 22,7 C 5,1 km/h (1 Bft)
27.08.2012 18:30 17,4 C 59 % 0,0 l/m 1,6 km/h (1 Bft) W 270 9,3 C 22,9 C 2,9 km/h (1 Bft)
27.08.2012 18:35 17,5 C 59 % 0,0 l/m 2,6 km/h (1 Bft) W-SW 247 9,4 C 22,7 C 4,8 km/h (1 Bft)
27.08.2012 18:40 17,5 C 58 % 0,0 l/m 3,1 km/h (1 Bft) N 360 9,1 C 22,5 C 4,2 km/h (1 Bft)
27.08.2012 18:45 17,1 C 59 % 0,0 l/m 2,1 km/h (1 Bft) W-NW 292 9,0 C 22,5 C 4,2 km/h (1 Bft)
27.08.2012 18:50 17,2 C 59 % 0,0 l/m 2,3 km/h (1 Bft) W 270 9,1 C 22,4 C 4,7 km/h (1 Bft)
27.08.2012 18:55 17,2 C 60 % 0,0 l/m 3,9 km/h (1 Bft) W-NW 292 9,4 C 21,9 C 4,5 km/h (1 Bft)
27.08.2012 19:00 17,2 C 60 % 0,0 l/m 3,4 km/h (1 Bft) W-NW 292 9,4 C 21,7 C 1,6 km/h (1 Bft)
27.08.2012 19:05 16,8 C 62 % 0,0 l/m 1,6 km/h (1 Bft) N 360 9,5 C 21,8 C 0,0 km/h (0 Bft)
27.08.2012 19:10 16,7 C 63 % 0,0 l/m 1,3 km/h (1 Bft) N 360 9,6 C 21,9 C 3,1 km/h (1 Bft)
27.08.2012 19:15 16,4 C 63 % 0,0 l/m 1,1 km/h (1 Bft) N 360 9,3 C 21,6 C 2,6 km/h (1 Bft)
27.08.2012 19:20 16,3 C 64 % 0,0 l/m 1,3 km/h (1 Bft) SO 135 9,5 C 21,4 C 2,4 km/h (1 Bft)
27.08.2012 19:25 16,3 C 65 % 0,0 l/m 1,0 km/h (0 Bft) N-NO 22 9,7 C 21,1 C 2,1 km/h (1 Bft)
27.08.2012 19:30 16,2 C 65 % 0,0 l/m 1,1 km/h (1 Bft) NO 45 9,6 C 20,7 C 2,1 km/h (1 Bft)
27.08.2012 19:35 16,1 C 66 % 0,0 l/m 1,3 km/h (1 Bft) NO 45 9,7 C 20,1 C 2,3 km/h (1 Bft)
27.08.2012 19:40 16,0 C 66 % 0,0 l/m 1,3 km/h (1 Bft) N 360 9,7 C 19,6 C 2,4 km/h (1 Bft)
27.08.2012 19:45 15,7 C 68 % 0,0 l/m 1,3 km/h (1 Bft) N 360 9,8 C 19,0 C 2,1 km/h (1 Bft)
27.08.2012 19:50 15,7 C 68 % 0,0 l/m 1,4 km/h (1 Bft) NO 45 9,8 C 18,6 C 3,4 km/h (1 Bft)
27.08.2012 19:55 15,3 C 69 % 0,0 l/m 1,1 km/h (1 Bft) N-NO 22 9,6 C 17,8 C 1,9 km/h (1 Bft)
27.08.2012 20:00 15,2 C 69 % 0,0 l/m 0,6 km/h (0 Bft) N-NO 22 9,6 C 17,0 C 1,9 km/h (1 Bft)
27.08.2012 20:05 15,1 C 70 % 0,0 l/m 0,6 km/h (0 Bft) N-NO 22 9,7 C 15,8 C 0,0 km/h (0 Bft)
27.08.2012 20:10 14,8 C 71 % 0,0 l/m 0,8 km/h (0 Bft) N-NO 22 9,6 C 15,3 C 2,4 km/h (1 Bft)
27.08.2012 20:15 14,4 C 71 % 0,0 l/m 1,0 km/h (0 Bft) N-NO 22 9,2 C 14,6 C 2,7 km/h (1 Bft)
27.08.2012 20:20 14,4 C 72 % 0,0 l/m 1,0 km/h (0 Bft) N 360 9,4 C 14,1 C 2,3 km/h (1 Bft)
27.08.2012 20:25 14,4 C 72 % 0,0 l/m 1,3 km/h (1 Bft) NO 45 9,4 C 13,8 C 2,9 km/h (1 Bft)
27.08.2012 20:30 14,4 C 72 % 0,0 l/m 1,1 km/h (1 Bft) N-NO 22 9,4 C 13,7 C 0,0 km/h (0 Bft)
27.08.2012 20:35 14,1 C 72 % 0,0 l/m 0,6 km/h (0 Bft) N 360 9,1 C 13,5 C 0,0 km/h (0 Bft)
27.08.2012 20:40 13,6 C 74 % 0,0 l/m 0,2 km/h (0 Bft) N-NW 337 9,1 C 13,2 C 0,0 km/h (0 Bft)
27.08.2012 20:45 13,4 C 75 % 0,0 l/m 0,0 km/h (0 Bft) NO 45 9,1 C 12,7 C 0,0 km/h (0 Bft)
27.08.2012 20:50 13,3 C 75 % 0,0 l/m 0,0 km/h (0 Bft) NO 45 9,0 C 12,4 C 0,0 km/h (0 Bft)
27.08.2012 20:55 13,0 C 76 % 0,0 l/m 0,0 km/h (0 Bft) N-NO 22 8,9 C 12,1 C 0,0 km/h (0 Bft)
27.08.2012 21:00 12,6 C 77 % 0,0 l/m 0,0 km/h (0 Bft) N-NO 22 8,7 C 11,8 C 0,0 km/h (0 Bft)
27.08.2012 21:05 12,1 C 77 % 0,0 l/m 0,0 km/h (0 Bft) N 360 8,2 C 11,4 C 0,0 km/h (0 Bft)
27.08.2012 21:10 12,3 C 79 % 0,0 l/m 0,0 km/h (0 Bft) N-NO 22 8,8 C 11,2 C 0,0 km/h (0 Bft)
27.08.2012 21:15 12,4 C 79 % 0,0 l/m 0,2 km/h (0 Bft) NO 45 8,9 C 11,2 C 2,1 km/h (1 Bft)
27.08.2012 21:20 11,9 C 79 % 0,0 l/m 0,2 km/h (0 Bft) NO 45 8,4 C 11,0 C 1,6 km/h (1 Bft)
27.08.2012 21:25 12,1 C 81 % 0,0 l/m 0,6 km/h (0 Bft) N-NO 22 8,9 C 10,9 C 0,0 km/h (0 Bft)
27.08.2012 21:30 11,7 C 81 % 0,0 l/m 0,5 km/h (0 Bft) N 360 8,5 C 10,8 C 0,0 km/h (0 Bft)
27.08.2012 21:35 11,3 C 82 % 0,0 l/m 0,0 km/h (0 Bft) NO 45 8,3 C 10,4 C 0,0 km/h (0 Bft)
27.08.2012 21:40 10,9 C 81 % 0,0 l/m 0,0 km/h (0 Bft) S 180 7,8 C 10,3 C 0,0 km/h (0 Bft)
27.08.2012 21:45 10,7 C 82 % 0,0 l/m 0,0 km/h (0 Bft) N-NO 22 7,8 C 10,0 C 0,0 km/h (0 Bft)
27.08.2012 21:50 10,7 C 83 % 0,0 l/m 0,0 km/h (0 Bft) NO 45 7,9 C 9,9 C 0,0 km/h (0 Bft)
27.08.2012 21:55 10,5 C 83 % 0,0 l/m 0,0 km/h (0 Bft) SO 135 7,7 C 9,8 C 0,0 km/h (0 Bft)
27.08.2012 22:00 10,3 C 83 % 0,0 l/m 0,0 km/h (0 Bft) SO 135 7,5 C 9,5 C 0,0 km/h (0 Bft)
27.08.2012 22:05 10,4 C 84 % 0,0 l/m 0,0 km/h (0 Bft) N-NO 22 7,8 C 9,4 C 0,0 km/h (0 Bft)
27.08.2012 22:10 10,2 C 84 % 0,0 l/m 0,0 km/h (0 Bft) N-NO 22 7,6 C 9,3 C 0,0 km/h (0 Bft)
27.08.2012 22:15 9,9 C 85 % 0,0 l/m 0,0 km/h (0 Bft) N 360 7,5 C 9,2 C 0,0 km/h (0 Bft)
27.08.2012 22:20 9,8 C 85 % 0,0 l/m 0,0 km/h (0 Bft) N 360 7,4 C 9,2 C 0,0 km/h (0 Bft)
27.08.2012 22:25 10,1 C 86 % 0,0 l/m 0,0 km/h (0 Bft) N-NO 22 7,9 C 9,2 C 0,0 km/h (0 Bft)
27.08.2012 22:30 10,1 C 86 % 0,0 l/m 0,0 km/h (0 Bft) NO 45 7,9 C 9,2 C 0,0 km/h (0 Bft)
27.08.2012 22:35 10,0 C 86 % 0,0 l/m 0,0 km/h (0 Bft) N-NO 22 7,8 C 9,2 C 0,0 km/h (0 Bft)
27.08.2012 22:40 9,8 C 86 % 0,0 l/m 0,0 km/h (0 Bft) SO 135 7,6 C 9,2 C 0,0 km/h (0 Bft)
27.08.2012 22:45 9,8 C 87 % 0,0 l/m 0,0 km/h (0 Bft) NO 45 7,7 C 9,1 C 0,0 km/h (0 Bft)
27.08.2012 22:50 9,6 C 87 % 0,0 l/m 0,0 km/h (0 Bft) NO 45 7,5 C 9,0 C 0,0 km/h (0 Bft)
27.08.2012 22:55 9,4 C 87 % 0,0 l/m 0,0 km/h (0 Bft) SO 135 7,3 C 8,9 C 0,0 km/h (0 Bft)
27.08.2012 23:00 9,4 C 87 % 0,0 l/m 0,0 km/h (0 Bft) NO 45 7,3 C 8,9 C 0,0 km/h (0 Bft)
27.08.2012 23:05 10,0 C 88 % 0,0 l/m 0,0 km/h (0 Bft) NO 45 8,1 C 9,1 C 1,8 km/h (1 Bft)
27.08.2012 23:10 10,0 C 88 % 0,0 l/m 0,0 km/h (0 Bft) O-NO 67 8,1 C 9,2 C 0,0 km/h (0 Bft)
27.08.2012 23:15 9,6 C 88 % 0,0 l/m 0,0 km/h (0 Bft) W 270 7,7 C 9,2 C 0,0 km/h (0 Bft)
27.08.2012 23:20 9,3 C 88 % 0,0 l/m 0,0 km/h (0 Bft) W-NW 292 7,4 C 9,1 C 0,0 km/h (0 Bft)
27.08.2012 23:25 9,2 C 88 % 0,0 l/m 0,0 km/h (0 Bft) N-NW 337 7,3 C 9,0 C 0,0 km/h (0 Bft)
27.08.2012 23:30 9,2 C 88 % 0,0 l/m 0,0 km/h (0 Bft) N-NW 337 7,3 C 8,9 C 0,0 km/h (0 Bft)
27.08.2012 23:35 9,3 C 88 % 0,0 l/m 0,0 km/h (0 Bft) NW 315 7,4 C 8,9 C 0,0 km/h (0 Bft)
27.08.2012 23:40 9,1 C 88 % 0,0 l/m 0,0 km/h (0 Bft) W-NW 292 7,2 C 8,9 C 0,0 km/h (0 Bft)
27.08.2012 23:45 9,2 C 89 % 0,0 l/m 0,0 km/h (0 Bft) N 360 7,5 C 8,7 C 0,0 km/h (0 Bft)
27.08.2012 23:50 8,9 C 89 % 0,0 l/m 0,0 km/h (0 Bft) N 360 7,2 C 8,6 C 0,0 km/h (0 Bft)
27.08.2012 23:55 8,9 C 89 % 0,0 l/m 0,0 km/h (0 Bft) N 360 7,2 C 8,4 C 0,0 km/h (0 Bft)
_ Min-Zeit 06:30 15:55 - 23:55 - - 06:00 06:35 23:55
Minimum _ 6,9 C 43 % - 0,0 km/h (0 Bft) - - 5,8 C 6,4 C 0,0 km/h (0 Bft)
_ Max-Zeit 12:25 07:45 23:55 16:00 - - 08:20 12:30 14:05
Maximum _ 22,6 C 94 % 0,0 l/m 8,4 km/h
W-SW (2 Bft)
- - 14,0 C 24,8 C 16,1 km/h
O-NO (3 Bft)
Durchschnitt _ 14,5 C 69 % #0,0 l/m 2,2 km/h (1 Bft) W-SW - 8,7 C 16,1 C 3,1 km/h (1 Bft)